Retour au catalogue

SL-23 R/B

ActifHEO
NORAD 37835·ROCKET BODY·🇷🇺 Russia

Lancé Oct 5, 2011 depuis Baikonur Cosmodrome

Loading…

Prochains Passages (prochaines 24 heures)

TLE

FraisSource: Space-Track

Époque: Sep 13, 2026, 07:11 UTC

1 37835U 11056B   26256.29946707  .00000206  00000-0  00000-0 0  9992
2 37835  19.5302 310.6790 5667139 288.3816  20.0106  1.96795628107401

Suivez SL-23 R/B en temps réel avec AllMySat

Download on the App Store